User: anonymous
Location: Pine Mountain Observatory
(43.7910°N, 120.9377°W)
Time: 17:09:01
(UTC-07:00)
Language:

APEX - Orbit

View from above orbital plane
View from above orbital plane
View from above satellite
View from above satellite

Ground track
Ground track

The orbit data is extracted from the following two-line orbital elements,

1 23191U 94046A   14241.41856227  .00027847  00000-0  11091-2 0  9808
2 23191 069.9227 023.6282 0741670 201.5754 225.2294 14.04872280970812
Epoch (UTC): 29 August 2014 10:02:43
Eccentricity: 0.0741670
inclination: 69.9227°
perigee height: 339 km
apogee height: 1415 km
right ascension of ascending node: 23.6282°
argument of perigee: 201.5754°
revolutions per day: 14.04872280
mean anomaly at epoch: 225.2294°
orbit number at epoch: 97081

The dashed part of the orbit path shows where the satellite is in the earth's shadow,  

DLR